Toledo, OH (43601)

8:44 PM EST on January 24, 2017 (GMT -0500)
643 white st | | Change Station

Elev 604 ft 41.64 °N, 83.51 °W | Updated 56 seconds ago

Overcast
Overcast
39.7 °F
Feels Like 40 °F
N
0.7
Wind Variable Wind from North
Gusts 1.6 mph

Today
High -- | Low -- °F
--% Chance of Precip.
Yesterday
High -- | Low -- °F
Precip. -- in
Pressure 29.84 in
Visibility 10.0 miles
Clouds Overcast 2100 ft
Windchill 40 °F
Dew Point 32 °F
Humidity 73%
Rainfall 0.01 in
Snow Depth Not available.
7:53 AM 5:40 PM
Waning Crescent, 9% visible
METAR KTDZ 250053Z AUTO 31009KT 10SM OVC021 05/02 A2983 RMK AO2 SLP104 T00500017
Pressure 29.84 in
Visibility 10.0 miles
Clouds Overcast 2100 ft
Windchill 40 °F
Dew Point 32 °F
Humidity 73%
Rainfall 0.01 in
Snow Depth Not available.
7:53 AM 5:40 PM
Waning Crescent, 9% visible
METAR KTDZ 250053Z AUTO 31009KT 10SM OVC021 05/02 A2983 RMK AO2 SLP104 T00500017

Get Your Daily Forecast Email!

Thanks for signing up!

Be on the lookout for a verification email in your inbox.

You'll start receiving the daily forecast at 8 AM.

×

10-Day Weather Forecast

Almanac

Astronomy

Jan. 24, 2017 Rise Set
Actual Time
Civil Twilight
Nautical Twilight
Astronomical Twilight
Moon
Length of Visible Light
Length of Day
Tomorrow will be .
, % of the Moon is Illuminated

Today's Extremes

State Highs State Lows

Community

WunderPhotos

Upload Photos

1,962,540 photos uploaded!

WunderBlog® & News

Nearby

Air Quality

  Air Quality AQ Index Pollutant
Not available.

Snow Depth

Station Depth Elevation

Earthquake Activity

City Distance Mag. Time & Date
Minimum magnitude displayed is 2.5.

Coastal Water Temperatures

Place Temperature

Stations

Nearby Weather Stations

Station Location Temp. Windchill Dew Point Humidity Wind Precip. Elev Updated Type
                   

Watches & Warnings

There are currently no watches in effect.